Meridian, MS

1:52 AM CDT on October 15, 2019 (GMT -0500)
Key

Weather History for KMEI - August, 2019

Change the Weather History Date:

Sunday, August 18, 2019

  Actual Average Record
Temperature  
Mean Temperature 84 °F 80 °F  
Max Temperature 97 °F 92 °F 104 °F (2000)
Min Temperature 70 °F 69 °F 56 °F (2004)
Degree Days  
Heating Degree Days 0 0  
Month to date heating degree days 0 0  
Since 1 June heating degree days 0 0  
Since 1 July heating degree days 0 0  
Cooling Degree Days 19 15  
Month to date cooling degree days 351 284  
Year to date cooling degree days 1866 1431  
Since 1 June cooling degree days 1370 1148  
Growing Degree Days 34 (Base 50)    
Moisture  
Dew Point 72 °F    
Average Humidity 69    
Maximum Humidity 91    
Minimum Humidity 46    
Precipitation  
Precipitation 0.01 in 0.12 in 3.08 in (1919)
Month to date precipitation 3.19 2.47  
Year to date precipitation 41.77 37.44  
Sea Level Pressure  
Sea Level Pressure 29.97 in    
Wind  
Wind Speed 2 mph (SW)    
Max Wind Speed 26 mph    
Max Gust Speed 34 mph    
Visibility 10 miles    
Events Rain , Thunderstorm    
T = Trace of Precipitation, MM = Missing Value Source: NWS Daily Summary

Daily Weather History Graph

Daily Weather History Graph

Search for Another Location

Airport or City:

Astronomy

Aug. 18, 2019 Rise Set
Actual Time 6:20 AM CDT 7:36 PM CDT
Civil Twilight 5:55 AM CDT 8:01 PM CDT
Nautical Twilight 5:24 AM CDT 8:32 PM CDT
Astronomical Twilight 4:52 AM CDT 9:04 PM CDT
Moon 9:40 PM CDT (8/18) 8:58 AM CDT (8/18)
Length of Visible Light 14h 06m
Length of Day
13h 15m
Waning Gibbous, 91% of the Moon is Illuminated
Aug 18
Waning Gibbous
Aug 23
Last Quarter
Aug 30
New
Sep 5
First Quarter
Sep 13
Full

Hourly Weather History & Observations

Time (CDT) Temp. Heat Index Dew Point Humidity Pressure Visibility Wind Dir Wind Speed Gust Speed Precip Events Conditions
12:58 AM 73.0 °F - 70.0 °F 90% 29.94 in 10.0 mi Calm Calm - N/A   Clear
1:58 AM 73.0 °F - 69.1 °F 87% 29.94 in 10.0 mi Calm Calm - N/A   Clear
2:58 AM 73.0 °F - 69.1 °F 87% 29.95 in 10.0 mi Calm Calm - N/A   Clear
3:58 AM 72.0 °F - 68.0 °F 87% 29.95 in 10.0 mi Calm Calm - N/A   Clear
4:58 AM 70.0 °F - 66.9 °F 90% 29.94 in 10.0 mi Calm Calm - N/A   Clear
5:58 AM 70.0 °F - 66.9 °F 90% 29.96 in 10.0 mi Calm Calm - N/A   Clear
6:58 AM 71.1 °F - 68.0 °F 90% 29.98 in 10.0 mi Calm Calm - N/A   Clear
7:58 AM 75.9 °F - 70.0 °F 82% 29.99 in 10.0 mi Calm Calm - N/A   Clear
8:58 AM 82.0 °F 87.4 °F 73.0 °F 74% 29.99 in 10.0 mi Calm Calm - N/A   Clear
9:58 AM 88.0 °F 98.5 °F 75.9 °F 67% 30.00 in 10.0 mi Calm Calm - N/A   Clear
10:58 AM 91.0 °F 101.6 °F 75.0 °F 59% 30.00 in 10.0 mi Calm Calm - N/A   Clear
12:58 PM 93.9 °F 102.1 °F 72.0 °F 49% 29.99 in 10.0 mi SSE 4.6 mph - N/A   Partly Cloudy
1:58 PM 97.0 °F 107.0 °F 73.0 °F 46% 29.95 in 10.0 mi Variable 3.5 mph - N/A   Clear
2:58 PM 95.0 °F 103.2 °F 72.0 °F 47% 29.94 in 10.0 mi SSW 5.8 mph - N/A   Clear
3:58 PM 91.9 °F 101.3 °F 73.9 °F 55% 29.94 in 10.0 mi WSW 4.6 mph - N/A   Clear
4:41 PM 82.0 °F 85.9 °F 70.0 °F 67% 29.97 in 10.0 mi SE 23.0 mph 33.4 mph 0.00 in Rain Light Rain
4:58 PM 82.0 °F 86.7 °F 72.0 °F 71% 29.97 in 10.0 mi Calm Calm - 0.00 in Rain Light Rain
5:09 PM 82.0 °F 87.4 °F 73.0 °F 74% 29.98 in 10.0 mi Calm Calm - 0.00 in Rain , Thunderstorm Light Thunderstorms and Rain
5:39 PM 80.1 °F 85.4 °F 75.9 °F 87% 29.96 in 10.0 mi WSW 5.8 mph - 0.01 in Rain Light Rain
5:58 PM 80.1 °F 85.4 °F 75.9 °F 87% 29.95 in 10.0 mi West 4.6 mph - 0.01 in Rain Light Rain
6:58 PM 81.0 °F 87.3 °F 75.9 °F 85% 29.96 in 10.0 mi Calm Calm - 0.00 in   Clear
7:58 PM 80.1 °F 85.4 °F 75.9 °F 87% 29.98 in 10.0 mi West 3.5 mph - 0.00 in Rain Light Rain
8:58 PM 79.0 °F - 75.9 °F 90% 29.97 in 10.0 mi Calm Calm - 0.00 in   Partly Cloudy
9:58 PM 79.0 °F - 75.9 °F 90% 29.97 in 10.0 mi Calm Calm - N/A   Clear
10:58 PM 78.1 °F - 75.0 °F 90% 29.97 in 10.0 mi Calm Calm - N/A   Clear
11:58 PM 78.1 °F - 75.0 °F 90% 29.97 in 10.0 mi South 4.6 mph - N/A   Clear